When you browse on this site, cookies collect data to enhance your experience and personalize the content and advertising you see.
Visit our Privacy Policy to learn more. By continuing to use the site, you agree to this use of cookies and data.
  • în România
  • Lista ţărilor
  • Pe 7 zile
  • Temperatura apei
  • Meteo pe hartă
  • Widget-uri
  • user-avatar
    Intrare

    Meteo pe oră la Tatabanya

    Astăzi, 22 Octombrie, Marţi

    Timp Temperatura Precipitaţii Vânt Presiune Umiditate
    00:00 +17°C° 0 mm 2 m/s 744 mmHg 81%
    01:00 +16°C° 0 mm 1 m/s 745 mmHg 84%
    02:00 +16°C° 0 mm 1 m/s 745 mmHg 85%
    03:00 +15°C° 0 mm 1 m/s 744 mmHg 86%
    04:00 +15°C° 0 mm 1 m/s 744 mmHg 87%
    05:00 +15°C° 0 mm 1 m/s 745 mmHg 87%
    06:00 +15°C° 0 mm 1 m/s 745 mmHg 87%
    07:00 +15°C° 0 mm 1 m/s 746 mmHg 84%
    08:00 +16°C° 0 mm 1 m/s 746 mmHg 76%
    09:00 +19°C° 0 mm 1 m/s 746 mmHg 68%
    10:00 +21°C° 0 mm 1 m/s 746 mmHg 59%
    11:00 +23°C° 0 mm 1 m/s 746 mmHg 55%
    12:00 +24°C° 0 mm 2 m/s 746 mmHg 50%
    13:00 +25°C° 0 mm 2 m/s 746 mmHg 46%
    14:00 +25°C° 0 mm 2 m/s 746 mmHg 49%
    15:00 +24°C° 0 mm 2 m/s 745 mmHg 51%
    16:00 +23°C° 0 mm 1 m/s 745 mmHg 54%
    17:00 +22°C° 0 mm 1 m/s 745 mmHg 59%
    18:00 +21°C° 0 mm 1 m/s 745 mmHg 63%
    19:00 +17°C° 0 mm 0 m/s 745 mmHg 68%
    20:00 +17°C° 0 mm 0 m/s 745 mmHg 69%
    21:00 +18°C° 0 mm 1 m/s 745 mmHg 70%
    22:00 +18°C° 0 mm 1 m/s 745 mmHg 71%
    23:00 +18°C° 0 mm 1 m/s 745 mmHg 72%

    Mâine, 23 Octombrie, Miercuri

    Timp Temperatura Precipitaţii Vânt Presiune Umiditate
    00:00 +16°C° 0 mm 1 m/s 745 mmHg 72%
    01:00 +16°C° 0 mm 1 m/s 745 mmHg 73%
    02:00 +16°C° 0 mm 1 m/s 745 mmHg 73%
    03:00 +15°C° 0 mm 2 m/s 745 mmHg 73%
    04:00 +15°C° 0 mm 2 m/s 744 mmHg 73%
    05:00 +15°C° 0 mm 2 m/s 744 mmHg 73%
    06:00 +15°C° 0 mm 2 m/s 745 mmHg 73%
    07:00 +15°C° 0 mm 2 m/s 745 mmHg 74%
    08:00 +17°C° 0 mm 2 m/s 745 mmHg 66%
    09:00 +19°C° 0 mm 3 m/s 745 mmHg 59%
    10:00 +21°C° 0 mm 3 m/s 745 mmHg 51%
    11:00 +22°C° 0 mm 3 m/s 744 mmHg 47%
    12:00 +23°C° 0 mm 4 m/s 744 mmHg 43%
    13:00 +25°C° 0 mm 4 m/s 744 mmHg 38%
    14:00 +25°C° 0 mm 3 m/s 743 mmHg 40%
    15:00 +24°C° 0 mm 3 m/s 743 mmHg 41%
    16:00 +22°C° 0 mm 3 m/s 742 mmHg 42%
    17:00 +21°C° 0 mm 3 m/s 742 mmHg 45%
    18:00 +19°C° 0 mm 3 m/s 742 mmHg 48%
    19:00 +18°C° 0 mm 3 m/s 742 mmHg 51%
    20:00 +17°C° 0 mm 3 m/s 742 mmHg 54%
    21:00 +17°C° 0 mm 3 m/s 742 mmHg 57%
    22:00 +16°C° 0 mm 3 m/s 742 mmHg 59%
    23:00 +16°C° 0 mm 3 m/s 742 mmHg 61%

    Poimâine, 24 Octombrie, Joi

    Timp Temperatura Precipitaţii Vânt Presiune Umiditate
    00:00 +14°C° 0 mm 3 m/s 741 mmHg 63%
    01:00 +15°C° 0 mm 2 m/s 741 mmHg 65%
    02:00 +14°C° 0 mm 3 m/s 741 mmHg 67%
    03:00 +13°C° 0 mm 3 m/s 741 mmHg 68%
    04:00 +13°C° 0 mm 3 m/s 740 mmHg 69%
    05:00 +13°C° 0 mm 3 m/s 740 mmHg 68%
    06:00 +13°C° 0 mm 3 m/s 740 mmHg 67%
    07:00 +13°C° 0 mm 3 m/s 740 mmHg 67%
    08:00 +16°C° 0 mm 3 m/s 740 mmHg 60%
    09:00 +18°C° 0 mm 4 m/s 740 mmHg 53%
    10:00 +20°C° 0 mm 4 m/s 740 mmHg 46%
    11:00 +21°C° 0 mm 4 m/s 740 mmHg 42%
    12:00 +22°C° 0 mm 5 m/s 740 mmHg 38%
    13:00 +25°C° 0 mm 5 m/s 739 mmHg 34%
    14:00 +23°C° 0 mm 5 m/s 739 mmHg 36%
    15:00 +23°C° 0 mm 4 m/s 739 mmHg 37%
    16:00 +22°C° 0 mm 4 m/s 739 mmHg 39%
    17:00 +20°C° 0 mm 3 m/s 739 mmHg 43%
    18:00 +19°C° 0 mm 3 m/s 739 mmHg 46%
    19:00 +17°C° 0 mm 3 m/s 739 mmHg 50%
    20:00 +17°C° 0 mm 3 m/s 739 mmHg 52%
    21:00 +16°C° 0 mm 2 m/s 740 mmHg 55%
    22:00 +16°C° 0 mm 2 m/s 740 mmHg 57%
    23:00 +15°C° 0 mm 2 m/s 740 mmHg 59%

    25 Octombrie, Vineri

    Timp Temperatura Precipitaţii Vânt Presiune Umiditate
    00:00 +15°C° 0 mm 2 m/s 740 mmHg 61%
    01:00 +15°C° 0 mm 1 m/s 740 mmHg 63%
    02:00 +14°C° 0 mm 1 m/s 741 mmHg 64%
    03:00 +14°C° 0 mm 1 m/s 741 mmHg 66%
    04:00 +13°C° 0 mm 1 m/s 741 mmHg 68%
    05:00 +13°C° 0 mm 1 m/s 742 mmHg 72%
    06:00 +13°C° 0 mm 2 m/s 742 mmHg 75%
    07:00 +12°C° 0 mm 2 m/s 742 mmHg 79%
    08:00 +13°C° 0 mm 3 m/s 743 mmHg 73%
    09:00 +15°C° 0 mm 4 m/s 743 mmHg 67%
    10:00 +18°C° 0 mm 4 m/s 744 mmHg 60%
    11:00 +19°C° 0 mm 5 m/s 744 mmHg 56%
    12:00 +20°C° 0 mm 5 m/s 744 mmHg 52%
    13:00 +21°C° 0 mm 5 m/s 744 mmHg 48%
    14:00 +21°C° 0 mm 4 m/s 744 mmHg 51%
    15:00 +20°C° 0 mm 4 m/s 744 mmHg 54%
    16:00 +19°C° 0 mm 3 m/s 744 mmHg 57%
    17:00 +18°C° 0 mm 3 m/s 744 mmHg 61%
    18:00 +17°C° 0 mm 3 m/s 744 mmHg 66%
    19:00 +15°C° 0 mm 2 m/s 744 mmHg 71%
    20:00 +15°C° 0 mm 2 m/s 744 mmHg 74%
    21:00 +14°C° 0 mm 1 m/s 745 mmHg 76%
    22:00 +13°C° 0 mm 1 m/s 745 mmHg 79%
    23:00 +13°C° 0 mm 1 m/s 745 mmHg 80%

    26 Octombrie, Sâmbătă

    Timp Temperatura Precipitaţii Vânt Presiune Umiditate
    00:00 +13°C° 0 mm 1 m/s 744 mmHg 81%
    01:00 +11°C° 0 mm 0 m/s 744 mmHg 83%
    02:00 +12°C° 0 mm 1 m/s 744 mmHg 82%
    03:00 +12°C° 0 mm 1 m/s 744 mmHg 82%
    04:00 +12°C° 0 mm 1 m/s 744 mmHg 82%
    05:00 +12°C° 0 mm 1 m/s 744 mmHg 82%
    06:00 +12°C° 0 mm 1 m/s 744 mmHg 82%
    07:00 +12°C° 0 mm 1 m/s 744 mmHg 82%
    08:00 +14°C° 0 mm 1 m/s 744 mmHg 74%
    09:00 +16°C° 0 mm 1 m/s 744 mmHg 66%
    10:00 +19°C° 0 mm 1 m/s 745 mmHg 58%
    11:00 +20°C° 0 mm 1 m/s 744 mmHg 53%
    12:00 +20°C° 0 mm 2 m/s 744 mmHg 48%
    13:00 +21°C° 0 mm 2 m/s 744 mmHg 43%
    14:00 +21°C° 0 mm 2 m/s 743 mmHg 46%
    15:00 +20°C° 0 mm 2 m/s 743 mmHg 49%
    16:00 +20°C° 0 mm 1 m/s 742 mmHg 52%
    17:00 +19°C° 0 mm 1 m/s 742 mmHg 57%
    18:00 +18°C° 0 mm 1 m/s 742 mmHg 61%
    19:00 +16°C° 0 mm 1 m/s 743 mmHg 66%
    20:00 +15°C° 0 mm 1 m/s 743 mmHg 68%
    21:00 +15°C° 0 mm 1 m/s 743 mmHg 70%
    22:00 +14°C° 0 mm 1 m/s 743 mmHg 72%
    23:00 +14°C° 0 mm 1 m/s 743 mmHg 73%

    27 Octombrie, Duminică

    Timp Temperatura Precipitaţii Vânt Presiune Umiditate
    00:00 +14°C° 0 mm 1 m/s 743 mmHg 75%
    01:00 +12°C° 0 mm 0 m/s 743 mmHg 77%
    02:00 +13°C° 0 mm 1 m/s 742 mmHg 78%
    03:00 +13°C° 0 mm 1 m/s 742 mmHg 80%
    04:00 +12°C° 0 mm 1 m/s 742 mmHg 81%
    05:00 +12°C° 0 mm 1 m/s 743 mmHg 81%
    06:00 +12°C° 0 mm 1 m/s 743 mmHg 81%
    07:00 +12°C° 0 mm 2 m/s 743 mmHg 81%
    08:00 +13°C° 0 mm 3 m/s 744 mmHg 74%
    09:00 +15°C° 0 mm 4 m/s 744 mmHg 66%
    10:00 +16°C° 0 mm 5 m/s 744 mmHg 58%
    11:00 +17°C° 0 mm 5 m/s 744 mmHg 57%
    12:00 +17°C° 0 mm 6 m/s 745 mmHg 56%
    13:00 +17°C° 0 mm 6 m/s 745 mmHg 54%
    14:00 +16°C° 0 mm 6 m/s 744 mmHg 54%
    15:00 +15°C° 0 mm 5 m/s 744 mmHg 53%
    16:00 +14°C° 0 mm 5 m/s 744 mmHg 52%
    17:00 +13°C° 0 mm 4 m/s 745 mmHg 51%
    18:00 +12°C° 0 mm 3 m/s 745 mmHg 49%
    19:00 +11°C° 0 mm 3 m/s 745 mmHg 47%
    20:00 +10°C° 0 mm 3 m/s 745 mmHg 49%
    21:00 +10°C° 0 mm 3 m/s 746 mmHg 51%
    22:00 +9°C° 0 mm 3 m/s 746 mmHg 53%
    23:00 +9°C° 0 mm 2 m/s 746 mmHg 52%

    28 Octombrie, Luni

    Timp Temperatura Precipitaţii Vânt Presiune Umiditate
    00:00 +9°C° 0 mm 2 m/s 745 mmHg 52%
    01:00 +9°C° 0 mm 2 m/s 745 mmHg 52%
    02:00 +9°C° 0 mm 2 m/s 745 mmHg 51%
    03:00 +10°C° 0 mm 1 m/s 745 mmHg 49%
    04:00 +10°C° 0 mm 1 m/s 745 mmHg 48%
    05:00 +9°C° 0.1 mm 1 m/s 744 mmHg 51%
    06:00 +9°C° 0.1 mm 1 m/s 744 mmHg 54%
    07:00 +9°C° 0.1 mm 1 m/s 744 mmHg 57%
    08:00 +8°C° 0.5 mm 1 m/s 744 mmHg 65%
    09:00 +8°C° 0.5 mm 1 m/s 744 mmHg 72%
    10:00 +8°C° 0.5 mm 1 m/s 744 mmHg 79%
    11:00 +8°C° 0.7 mm 1 m/s 744 mmHg 81%
    12:00 +8°C° 0.7 mm 1 m/s 744 mmHg 83%
    13:00 +8°C° 0.7 mm 1 m/s 743 mmHg 85%
    14:00 +8°C° 0.1 mm 1 m/s 743 mmHg 85%
    15:00 +9°C° 0.1 mm 1 m/s 743 mmHg 84%
    16:00 +9°C° 0.1 mm 1 m/s 742 mmHg 84%
    17:00 +8°C° 0 mm 1 m/s 742 mmHg 86%
    18:00 +8°C° 0 mm 1 m/s 742 mmHg 88%
    19:00 +8°C° 0 mm 1 m/s 742 mmHg 90%
    20:00 +8°C° 0 mm 1 m/s 742 mmHg 89%
    21:00 +8°C° 0 mm 1 m/s 743 mmHg 88%
    22:00 +9°C° 0 mm 1 m/s 743 mmHg 87%
    23:00 +9°C° 0 mm 1 m/s 743 mmHg 88%
    Arată mai mult